Location: Unspecified
(51.6250°N, 0.8230°E)
Time: 13:31:01
(UTC+01:00)

Resurs 1-4 Rocket - Visible Passes

Search period start: 22 October 2019 00:00
Search period end: 31 October 2019 23:00
Orbit: 800 x 813 km, 98.6° (Epoch: 21 October)

Date Brightness Start Highest point End Pass type
(mag) Time Alt. Az. Time Alt. Az. Time Alt. Az.
22 Oct 4.4 03:17:24 10° N 03:18:44 18° N 03:18:44 18° N visible
22 Oct 4.3 04:58:50 10° NNW 04:59:48 12° NNW 04:59:48 12° NNW visible
23 Oct 4.6 02:52:45 10° NNE 02:53:44 16° NNE 02:53:44 16° NNE visible
23 Oct 4.2 04:33:32 10° N 04:34:48 15° NNW 04:34:48 15° NNW visible
24 Oct 4.9 02:28:13 10° NNE 02:28:44 13° NNE 02:28:44 13° NNE visible
24 Oct 4.2 04:08:31 10° N 04:09:48 16° N 04:09:48 16° N visible
25 Oct 4.4 03:43:38 10° N 03:44:48 16° N 03:44:48 16° N visible
26 Oct 4.6 03:18:52 10° N 03:19:48 15° N 03:19:48 15° N visible
26 Oct 4.4 05:00:22 10° NNW 05:00:52 11° NNW 05:00:52 11° NNW visible
27 Oct 4.8 01:54:13 10° NNE 01:54:48 13° NNE 01:54:48 13° NNE visible
27 Oct 4.4 03:35:01 10° N 03:35:52 13° NNW 03:35:52 13° NNW visible
28 Oct 5.0 01:29:40 10° NNE 01:29:48 11° NNE 01:29:48 11° NNE visible
28 Oct 4.4 03:10:00 10° N 03:10:52 14° N 03:10:52 14° N visible
29 Oct 4.5 02:45:07 10° N 02:45:53 14° N 02:45:53 14° N visible
30 Oct 4.7 02:20:21 10° N 02:20:52 13° N 02:20:52 13° N visible
30 Oct 4.5 04:01:53 10° NNW 04:01:57 10° NNW 04:01:57 10° NNW visible
31 Oct 4.9 01:55:41 10° NNE 01:55:52 11° NNE 01:55:52 11° NNE visible
31 Oct 4.5 03:36:31 10° N 03:36:57 12° NNW 03:36:57 12° NNW visible
